TimePDT,TemperatureF,Dew PointF,Humidity,Sea Level PressureIn,VisibilityMPH,Wind Direction,Wind SpeedMPH,Gust SpeedMPH,PrecipitationIn,Events,Conditions,WindDirDegrees,DateUTC
12:56 AM,48.9,43.0,80,30.17,10.0,Calm,Calm,-,N/A,,Clear,0,2013-04-10 07:56:00
1:56 AM,50.0,43.0,77,30.18,10.0,Calm,Calm,-,N/A,,Clear,0,2013-04-10 08:56:00
2:56 AM,46.0,42.1,86,30.18,10.0,Calm,Calm,-,N/A,,Clear,0,2013-04-10 09:56:00
3:56 AM,46.9,42.1,83,30.18,10.0,Calm,Calm,-,N/A,,Clear,0,2013-04-10 10:56:00
4:56 AM,48.0,43.0,83,30.18,10.0,Calm,Calm,-,N/A,,Clear,0,2013-04-10 11:56:00
5:56 AM,46.9,43.0,86,30.20,10.0,Calm,Calm,-,N/A,,Clear,0,2013-04-10 12:56:00
6:56 AM,45.0,42.1,90,30.21,10.0,Calm,Calm,-,N/A,,Clear,0,2013-04-10 13:56:00
7:56 AM,48.9,45.0,86,30.23,10.0,Calm,Calm,-,N/A,,Clear,0,2013-04-10 14:56:00
8:56 AM,57.9,46.0,65,30.23,10.0,Calm,Calm,-,N/A,,Clear,0,2013-04-10 15:56:00
9:56 AM,66.0,48.0,52,30.22,10.0,NNW,5.8,-,N/A,,Clear,340,2013-04-10 16:56:00
10:56 AM,71.1,48.0,44,30.20,10.0,WNW,4.6,-,N/A,,Clear,290,2013-04-10 17:56:00
11:56 AM,77.0,48.9,37,30.17,10.0,Calm,Calm,-,N/A,,Clear,0,2013-04-10 18:56:00
12:56 PM,80.1,48.0,32,30.15,10.0,NW,13.8,-,N/A,,Clear,320,2013-04-10 19:56:00
1:56 PM,80.1,48.0,32,30.13,10.0,NW,10.4,20.7,N/A,,Clear,310,2013-04-10 20:56:00
2:56 PM,80.1,45.0,29,30.12,10.0,WNW,15.0,24.2,N/A,,Clear,300,2013-04-10 21:56:00
3:56 PM,79.0,46.9,32,30.10,10.0,WNW,11.5,20.7,N/A,,Clear,290,2013-04-10 22:56:00
4:56 PM,73.9,48.9,41,30.10,10.0,Variable,6.9,23.0,N/A,,Clear,0,2013-04-10 23:56:00
5:56 PM,72.0,48.9,44,30.09,10.0,Variable,3.5,-,N/A,,Clear,0,2013-04-11 00:56:00
6:56 PM,71.1,48.9,45,30.08,10.0,WNW,11.5,20.7,N/A,,Clear,300,2013-04-11 01:56:00
7:56 PM,69.1,46.0,44,30.08,10.0,WNW,11.5,20.7,N/A,,Clear,290,2013-04-11 02:56:00
8:56 PM,64.9,46.9,52,30.09,10.0,NW,9.2,17.3,N/A,,Clear,310,2013-04-11 03:56:00
9:56 PM,61.0,46.9,60,30.11,10.0,NNE,8.1,-,N/A,,Clear,30,2013-04-11 04:56:00
10:56 PM,60.1,46.9,62,30.12,10.0,NW,8.1,-,N/A,,Clear,320,2013-04-11 05:56:00
11:56 PM,55.9,46.9,72,30.12,10.0,North,3.5,-,N/A,,Clear,350,2013-04-11 06:56:00